TimeEST,TemperatureF,Dew PointF,Humidity,Sea Level PressureIn,VisibilityMPH,Wind Direction,Wind SpeedMPH,Gust SpeedMPH,PrecipitationIn,Events,Conditions,WindDirDegrees,DateUTC
12:51 AM,14.0,3.9,64,29.94,9.0,SW,15.0,26.5,N/A,,Partly Cloudy,230,2013-12-13 05:51:00
1:51 AM,14.0,6.1,71,29.94,6.0,SSW,12.7,18.4,N/A,,Haze,210,2013-12-13 06:51:00
2:51 AM,15.1,5.0,64,29.92,10.0,SSW,15.0,23.0,N/A,,Overcast,210,2013-12-13 07:51:00
3:51 AM,15.1,6.1,68,29.92,8.0,WSW,10.4,-,N/A,,Overcast,250,2013-12-13 08:51:00
4:09 AM,14.0,6.8,73,29.84,3.0,SSW,9.2,16.1,0.00,Snow,Light Snow,210,2013-12-13 09:09:00
4:20 AM,14.0,6.8,73,29.84,5.0,SW,4.6,-,0.00,,Haze,230,2013-12-13 09:20:00
4:51 AM,14.0,8.1,77,29.92,3.0,SW,4.6,-,0.00,Snow,Light Snow,230,2013-12-13 09:51:00
4:55 AM,14.0,8.6,79,29.85,2.5,SW,8.1,-,0.00,Snow,Light Snow,230,2013-12-13 09:55:00
5:26 AM,14.0,8.6,79,29.85,2.5,SSW,4.6,-,0.00,Snow,Light Snow,210,2013-12-13 10:26:00
5:36 AM,15.8,8.6,73,29.85,3.0,Variable,5.8,-,0.00,Snow,Light Snow,0,2013-12-13 10:36:00
5:47 AM,14.0,8.6,79,29.86,2.5,West,5.8,-,0.00,Snow,Light Snow,270,2013-12-13 10:47:00
5:51 AM,14.0,9.0,80,29.94,2.0,WSW,8.1,-,0.00,Snow,Light Snow,250,2013-12-13 10:51:00
6:01 AM,14.0,10.4,86,29.87,1.5,West,5.8,-,0.00,Snow,Light Snow,280,2013-12-13 11:01:00
6:14 AM,14.0,10.4,86,29.87,1.2,NW,5.8,-,0.00,Snow,Light Snow,310,2013-12-13 11:14:00
6:20 AM,14.0,10.4,86,29.88,0.8,NNW,5.8,-,0.00,Snow,Light Snow,330,2013-12-13 11:20:00
6:27 AM,14.0,10.4,86,29.89,0.5,NNW,6.9,-,0.00,Fog-Snow,Snow,330,2013-12-13 11:27:00
6:47 AM,14.0,10.4,86,29.89,1.0,NW,5.8,-,0.00,Snow,Light Snow,310,2013-12-13 11:47:00
6:51 AM,14.0,10.9,88,29.97,1.0,NW,5.8,-,0.00,Snow,Light Snow,320,2013-12-13 11:51:00
7:23 AM,12.2,10.4,92,29.91,0.8,NW,12.7,18.4,0.00,Snow,Light Snow,310,2013-12-13 12:23:00
7:51 AM,12.9,9.0,84,30.01,0.8,NW,5.8,-,0.00,Snow,Light Snow,310,2013-12-13 12:51:00
8:00 AM,12.2,8.6,85,29.93,1.2,WNW,9.2,-,0.00,Snow,Light Snow,290,2013-12-13 13:00:00
8:07 AM,12.2,8.6,85,29.93,1.8,WNW,11.5,18.4,0.00,Snow,Light Snow,290,2013-12-13 13:07:00
8:11 AM,12.2,6.8,79,29.94,2.5,WNW,16.1,21.9,0.00,Snow,Light Snow,300,2013-12-13 13:11:00
8:19 AM,12.2,5.0,73,29.94,7.0,WNW,15.0,21.9,0.00,,Overcast,300,2013-12-13 13:19:00
8:41 AM,12.2,6.8,79,29.96,1.8,WNW,6.9,18.4,0.00,Snow,Light Snow,300,2013-12-13 13:41:00
8:45 AM,12.2,6.8,79,29.96,1.2,WNW,6.9,-,0.00,Snow,Light Snow,300,2013-12-13 13:45:00
8:51 AM,12.0,7.0,80,30.04,0.8,NW,8.1,-,0.00,Snow,Light Snow,310,2013-12-13 13:51:00
9:05 AM,12.2,8.6,85,29.97,0.5,NNW,6.9,-,0.00,Fog-Snow,Snow,330,2013-12-13 14:05:00
9:51 AM,12.0,9.0,88,30.06,0.5,NNW,4.6,-,0.00,Fog-Snow,Snow,330,2013-12-13 14:51:00
10:12 AM,12.2,6.8,79,29.99,1.2,NW,9.2,-,0.00,Snow,Light Snow,310,2013-12-13 15:12:00
10:16 AM,12.2,6.8,79,29.99,2.0,WNW,9.2,-,0.00,Snow,Light Snow,300,2013-12-13 15:16:00
10:25 AM,12.2,6.8,79,29.99,3.0,NW,15.0,24.2,0.00,Snow,Light Snow,320,2013-12-13 15:25:00
10:40 AM,12.2,5.0,73,29.99,4.0,WNW,10.4,18.4,0.00,Snow,Light Snow,300,2013-12-13 15:40:00
10:44 AM,12.2,6.8,79,29.99,2.5,WNW,8.1,18.4,0.00,Snow,Light Snow,290,2013-12-13 15:44:00
10:51 AM,12.9,6.1,74,30.06,3.0,WNW,9.2,-,0.00,Snow,Light Snow,290,2013-12-13 15:51:00
11:00 AM,12.2,6.8,79,29.99,4.0,NNW,5.8,-,0.00,Snow,Light Snow,330,2013-12-13 16:00:00
11:12 AM,12.2,5.0,73,29.99,2.5,NW,13.8,20.7,0.00,Snow,Light Snow,320,2013-12-13 16:12:00
11:24 AM,12.2,5.0,73,29.99,1.5,NW,8.1,18.4,0.00,Snow,Light Snow,310,2013-12-13 16:24:00
11:51 AM,12.0,5.0,73,30.07,2.5,NW,8.1,-,0.00,Snow,Light Snow,320,2013-12-13 16:51:00
11:58 AM,12.2,3.2,67,29.99,4.0,NW,8.1,-,0.00,Snow,Light Snow,310,2013-12-13 16:58:00
12:20 PM,12.2,5.0,73,29.99,1.8,NNW,8.1,-,0.00,Snow,Light Snow,330,2013-12-13 17:20:00
12:35 PM,12.2,5.0,73,30.00,2.5,NW,11.5,19.6,0.00,Snow,Light Snow,310,2013-12-13 17:35:00
12:44 PM,12.2,5.0,73,30.00,1.8,NW,9.2,19.6,0.00,Snow,Light Snow,320,2013-12-13 17:44:00
12:51 PM,12.0,6.1,77,30.08,2.5,NNW,8.1,-,0.00,Snow,Light Snow,330,2013-12-13 17:51:00
1:15 PM,12.2,6.8,79,30.01,1.2,NNW,6.9,-,0.00,Snow,Light Snow,330,2013-12-13 18:15:00
1:31 PM,10.4,6.8,85,30.02,0.8,NW,11.5,-,0.00,Snow,Light Snow,320,2013-12-13 18:31:00
1:48 PM,10.4,6.8,85,30.03,0.5,NNW,11.5,19.6,0.00,Fog-Snow,Light Snow,330,2013-12-13 18:48:00
1:51 PM,10.0,6.1,84,30.11,0.5,NW,12.7,19.6,0.00,Fog-Snow,Light Snow,320,2013-12-13 18:51:00
2:02 PM,8.6,3.2,79,30.04,1.0,NW,12.7,20.7,0.00,Snow,Light Snow,320,2013-12-13 19:02:00
2:05 PM,8.6,3.2,79,30.04,1.5,NW,12.7,19.6,0.00,Snow,Light Snow,320,2013-12-13 19:05:00
2:10 PM,8.6,1.4,73,30.04,3.0,NW,10.4,21.9,0.00,Snow,Light Snow,320,2013-12-13 19:10:00
2:20 PM,8.6,1.4,73,30.05,7.0,NW,12.7,-,0.00,,Overcast,310,2013-12-13 19:20:00
2:51 PM,8.1,-0.0,70,30.15,10.0,NNW,6.9,-,0.00,,Overcast,330,2013-12-13 19:51:00
3:51 PM,7.0,-2.0,67,30.20,10.0,Variable,5.8,-,N/A,,Clear,0,2013-12-13 20:51:00
4:51 PM,3.9,-5.1,66,30.25,10.0,WNW,6.9,-,N/A,,Clear,290,2013-12-13 21:51:00
5:51 PM,3.0,-6.0,66,30.28,10.0,NW,8.1,-,N/A,,Clear,310,2013-12-13 22:51:00
6:51 PM,1.9,-6.0,69,30.32,10.0,WNW,6.9,-,N/A,,Clear,290,2013-12-13 23:51:00
7:51 PM,1.0,-6.0,72,30.37,10.0,WNW,5.8,-,N/A,,Clear,290,2013-12-14 00:51:00
8:40 PM,-0.4,-7.6,72,30.29,10.0,Calm,Calm,-,N/A,,Mostly Cloudy,0,2013-12-14 01:40:00
8:51 PM,-0.0,-7.1,72,30.39,10.0,WNW,4.6,-,N/A,,Overcast,290,2013-12-14 01:51:00
9:46 PM,-0.4,-7.6,72,30.33,10.0,WNW,4.6,-,N/A,,Scattered Clouds,290,2013-12-14 02:46:00
9:51 PM,-0.0,-8.0,69,30.42,10.0,WNW,4.6,-,N/A,,Partly Cloudy,290,2013-12-14 02:51:00
10:51 PM,-2.0,-9.0,72,30.43,10.0,North,4.6,-,N/A,,Clear,350,2013-12-14 03:51:00
11:51 PM,-6.0,-9.0,87,30.48,10.0,Calm,Calm,-,N/A,,Clear,0,2013-12-14 04:51:00